1. Welcome! Are you interested in tortoises? If so, we invite you to join our community! Our community is the #1 place for tortoise keepers to talk online. Once you join you'll be able to post messages, upload pictures of your tortoise and enclosure, and discuss any tortoise topic with other tortoise keepers. Get started today!

Started

Discussion in 'Tortoise Enclosures' started by Action, Jun 13, 2019.

Help Support Tortoise Forums by donating:

  1. Maro2Bear

    Maro2Bear Well-Known Member 5 Year Member

    Joined:
    May 29, 2014
    Messages:
    6,787
    Likes Received:
    22,426
    Trophy Points:
    113
    Location (City and/or State):
    Glenn Dale, Maryland, USA
    Looking good there. Nice build.
    Action likes this.
  2. katieandiggy

    katieandiggy Well-Known Member

    Joined:
    Mar 12, 2018
    Messages:
    905
    Likes Received:
    911
    Trophy Points:
    93
    Location (City and/or State):
    Suffolk, United Kingdom
    Just keep in mind that you will need to keep re-wetting your substrate as mark described above. I think if you turn it over every couple of days and mix it all up with your hands you will keep it nice and damp throughout.
    Action likes this.
  3. Action

    Action Member

    Joined:
    Jun 10, 2019
    Messages:
    56
    Likes Received:
    21
    Trophy Points:
    8
    Location (City and/or State):
    Valley Springs, Ca.
    Just wondering how high off the floor I should have my temp sensor? right now it is in the middle of the enclosure at about 8" off the floor.
    Thanks
    Jack
  4. Maro2Bear

    Maro2Bear Well-Known Member 5 Year Member

    Joined:
    May 29, 2014
    Messages:
    6,787
    Likes Received:
    22,426
    Trophy Points:
    113
    Location (City and/or State):
    Glenn Dale, Maryland, USA
    Id suggest you keep the temp sensor right at tortoise level - thsts whats important.
    Action likes this.
  5. Action

    Action Member

    Joined:
    Jun 10, 2019
    Messages:
    56
    Likes Received:
    21
    Trophy Points:
    8
    Location (City and/or State):
    Valley Springs, Ca.
    Working on my enclosure a little more. Have not been happy with the humidity. I can get it to 85-90% but wont seem to stay. so working on the doors/entrance as that is the only place not sealed 100%.......I'm close so I hope this gets me there.
    Jack

    Attached Files:

    xMario likes this.
  6. Action

    Action Member

    Joined:
    Jun 10, 2019
    Messages:
    56
    Likes Received:
    21
    Trophy Points:
    8
    Location (City and/or State):
    Valley Springs, Ca.
    Just bought an Inkbird IBS-TH1 so I can watch temps and humidity on my phone. so far so good. It is pretty interesting to see what it is doing at all times. I would like to get a few more someday so I can really see how things are going.
    Jack
  7. Action

    Action Member

    Joined:
    Jun 10, 2019
    Messages:
    56
    Likes Received:
    21
    Trophy Points:
    8
    Location (City and/or State):
    Valley Springs, Ca.
    still trying to learn how to use new gadget....lol...Right now it reports every minute.

    time,hum,temp
    2019-07-11 06:52:24,82.54,77.47
    2019-07-11 06:53:24,79.57,77.74
    2019-07-11 06:54:24,76.59,78.01
    2019-07-11 06:55:24,73.62,78.3
    2019-07-11 06:56:24,70.64,78.57
    2019-07-11 06:57:24,67.67,78.84
    2019-07-11 06:58:24,64.69,79.11
    2019-07-11 06:59:24,61.72,79.39
    2019-07-11 07:00:24,58.74,79.66
    2019-07-11 07:01:24,55.77,79.93
    2019-07-11 07:02:24,81.19,80.06
    2019-07-11 07:03:24,81.04,80.15
    2019-07-11 07:04:24,80.88,80.24
    2019-07-11 07:05:24,80.73,80.33
    2019-07-11 07:06:24,80.58,80.42
    2019-07-11 07:07:24,80.42,80.53
    2019-07-11 07:08:24,80.27,80.62
    2019-07-11 07:09:24,80.12,80.71
    2019-07-11 07:10:24,79.96,80.8
    2019-07-11 07:11:24,79.81,80.89
    2019-07-11 07:12:24,80.49,80.94
    2019-07-11 07:13:24,80.45,80.98
    2019-07-11 07:14:24,80.41,81.01
    2019-07-11 07:15:24,80.36,81.05
    2019-07-11 07:16:24,80.32,81.09
    2019-07-11 07:17:24,80.28,81.1
    2019-07-11 07:18:24,80.24,81.14
    2019-07-11 07:19:24,80.19,81.18
    2019-07-11 07:20:24,80.15,81.21
    2019-07-11 07:21:24,80.11,81.25
    2019-07-11 07:22:24,80.2,81.14
    2019-07-11 07:23:24,80.4,81.18
    2019-07-11 07:24:24,80.6,81.23
    2019-07-11 07:25:24,80.79,81.27
    2019-07-11 07:26:24,80.99,81.32
    2019-07-11 07:27:24,81.19,81.36
    2019-07-11 07:28:24,81.39,81.41
    2019-07-11 07:29:24,81.58,81.45
    2019-07-11 07:30:24,81.78,81.5
    2019-07-11 07:31:24,81.98,81.54
    2019-07-11 07:32:24,81.54,81.55
    2019-07-11 07:33:24,81.35,81.57
    2019-07-11 07:34:24,81.17,81.59
    2019-07-11 07:35:24,80.98,81.63
    2019-07-11 07:36:24,80.79,81.64
    2019-07-11 07:37:24,80.61,81.66
    2019-07-11 07:38:24,80.42,81.68
    2019-07-11 07:39:24,80.23,81.72
    2019-07-11 07:40:24,80.05,81.73
    2019-07-11 07:41:24,79.86,81.75
    2019-07-11 07:42:24,79.44,81.77
    2019-07-11 07:43:24,79.59,81.79
    2019-07-11 07:44:24,79.73,81.81
    2019-07-11 07:45:24,79.88,81.82
    2019-07-11 07:46:24,80.03,81.84
    2019-07-11 07:47:24,80.17,81.84
    2019-07-11 07:48:24,80.32,81.86
    2019-07-11 07:49:24,80.47,81.88
    2019-07-11 07:50:24,80.61,81.9
    2019-07-11 07:51:24,80.76,81.91
    2019-07-11 07:52:24,80.6,81.86
    2019-07-11 07:53:24,80.38,81.9
    2019-07-11 07:54:24,80.16,81.91
    2019-07-11 07:55:24,79.93,81.95
    2019-07-11 07:56:24,79.71,81.99
    2019-07-11 07:57:24,79.49,82
    2019-07-11 07:58:24,79.27,82.04
    2019-07-11 07:59:24,79.04,82.08
    2019-07-11 08:00:24,78.82,82.09
    2019-07-11 08:01:24,78.6,82.13
    2019-07-11 08:02:24,78.44,82.04
    2019-07-11 08:03:24,78.58,82.08
    2019-07-11 08:04:24,78.73,82.09
    2019-07-11 08:05:24,78.87,82.13
    2019-07-11 08:06:24,79.01,82.15
    2019-07-11 08:07:24,79.16,82.18
    2019-07-11 08:08:24,79.3,82.2
    2019-07-11 08:09:24,79.44,82.24
    2019-07-11 08:10:24,79.59,82.26
    2019-07-11 08:11:24,79.73,82.29
    2019-07-11 08:12:24,79.53,82.31
    2019-07-11 08:13:24,79.48,82.33
    2019-07-11 08:14:24,79.42,82.35
    2019-07-11 08:15:24,79.37,82.36
    2019-07-11 08:16:24,79.32,82.38
    2019-07-11 08:17:24,79.26,82.38
    2019-07-11 08:18:24,79.21,82.4
    2019-07-11 08:19:24,79.16,82.42
    2019-07-11 08:20:24,79.1,82.44
    2019-07-11 08:21:24,79.05,82.45
    2019-07-11 08:22:24,78.48,82.49
    2019-07-11 08:23:24,78.53,82.51
    2019-07-11 08:24:24,78.58,82.53
    2019-07-11 08:25:24,78.63,82.56
    2019-07-11 08:26:24,78.68,82.58
    2019-07-11 08:27:24,78.72,82.6
    2019-07-11 08:28:24,78.77,82.62
    2019-07-11 08:29:24,78.82,82.65
    2019-07-11 08:30:24,78.87,82.67
    2019-07-11 08:31:24,78.92,82.69
    2019-07-11 08:32:24,78.5,82.71
    2019-07-11 08:33:24,78.36,82.72
    2019-07-11 08:34:24,78.22,82.76
    2019-07-11 08:35:24,78.07,82.78
    2019-07-11 08:36:24,77.93,82.8
    2019-07-11 08:37:24,77.79,82.83
    2019-07-11 08:38:24,77.65,82.85
    2019-07-11 08:39:24,77.5,82.87
    2019-07-11 08:40:24,77.36,82.9
    2019-07-11 08:41:24,77.22,82.92
    2019-07-11 08:42:24,78.7,82.94
    2019-07-11 08:43:24,78.54,82.96
    2019-07-11 08:44:24,78.38,82.99
    2019-07-11 08:45:24,78.22,83.01
    2019-07-11 08:46:24,78.06,83.05
    2019-07-11 08:47:24,77.89,83.07
    2019-07-11 08:48:24,77.73,83.1
    2019-07-11 08:49:24,77.57,83.12
    2019-07-11 08:50:24,77.41,83.16
    2019-07-11 08:51:24,77.25,83.17
    2019-07-11 08:52:24,78.42,83.21
    2019-07-11 08:53:24,78.28,83.25
    2019-07-11 08:54:24,78.14,83.26
    2019-07-11 08:55:24,78,83.3
    2019-07-11 08:56:24,77.86,83.32
    2019-07-11 08:57:24,77.73,83.35
    2019-07-11 08:58:24,77.59,83.37
    2019-07-11 08:59:24,77.45,83.41
    2019-07-11 09:00:24,77.31,83.43
    2019-07-11 09:01:24,77.17,83.46
    2019-07-11 09:02:24,78.6,83.5
    2019-07-11 09:03:24,78.4,83.52
    2019-07-11 09:04:24,78.19,83.53
    2019-07-11 09:05:24,77.99,83.57
    2019-07-11 09:06:24,77.79,83.59
    2019-07-11 09:07:24,77.58,83.61
    2019-07-11 09:08:24,77.38,83.62
    2019-07-11 09:09:24,77.18,83.66
    2019-07-11 09:10:24,76.97,83.68
    2019-07-11 09:11:24,76.77,83.7
    2019-07-11 09:12:24,78.12,83.71
    2019-07-11 09:13:24,77.99,83.73
    2019-07-11 09:14:24,77.85,83.77
    2019-07-11 09:15:24,77.72,83.79
    2019-07-11 09:16:24,77.59,83.82
    2019-07-11 09:17:24,77.45,83.84
    2019-07-11 09:18:24,77.32,83.88
    2019-07-11 09:19:24,77.19,83.89
    2019-07-11 09:20:24,77.05,83.93
    2019-07-11 09:21:24,76.92,83.95
    2019-07-11 09:22:24,76.81,83.97
    2019-07-11 09:23:24,76.98,83.98
    2019-07-11 09:24:24,77.15,84.02
    2019-07-11 09:25:24,77.32,84.04
    2019-07-11 09:26:24,77.49,84.06
    2019-07-11 09:27:24,77.67,84.09
    2019-07-11 09:28:24,77.84,84.11
    2019-07-11 09:29:24,78.01,84.13
    2019-07-11 09:30:24,78.18,84.16
    2019-07-11 09:31:24,78.35,84.18
    2019-07-11 09:32:24,78.24,84.2
    2019-07-11 09:33:24,78.05,84.24
    2019-07-11 09:34:24,77.86,84.25
    2019-07-11 09:35:24,77.67,84.29
    2019-07-11 09:36:24,77.48,84.31
    2019-07-11 09:37:24,77.28,84.34
    2019-07-11 09:38:24,77.09,84.36
    2019-07-11 09:39:24,76.9,84.4
    2019-07-11 09:40:24,76.71,84.42
    2019-07-11 09:41:24,76.52,84.45
    2019-07-11 09:42:24,79.44,84.47
    2019-07-11 09:43:24,79.27,84.51
    2019-07-11 09:44:24,79.1,84.52
    2019-07-11 09:45:24,78.92,84.56
    2019-07-11 09:46:24,78.75,84.58
    2019-07-11 09:47:24,78.58,84.61
    2019-07-11 09:48:24,78.41,84.63
    2019-07-11 09:49:24,78.23,84.67
    2019-07-11 09:50:24,78.06,84.69
    2019-07-11 09:51:24,77.89,84.72
    2019-07-11 09:52:24,77.67,84.72
    2019-07-11 09:53:24,77.47,84.7
    2019-07-11 09:54:24,77.27,84.69
    2019-07-11 09:55:24,77.07,84.67
    2019-07-11 09:56:24,76.87,84.65
    2019-07-11 09:57:24,76.67,84.65
    2019-07-11 09:58:24,76.47,84.63
    2019-07-11 09:59:24,76.27,84.61
    2019-07-11 10:00:24,76.07,84.6
    2019-07-11 10:01:24,75.87,84.58
    2019-07-11 10:02:24,76.93,84.7
    2019-07-11 10:03:24,76.76,84.69
    2019-07-11 10:04:24,76.59,84.67
    2019-07-11 10:05:24,76.42,84.65
    2019-07-11 10:06:24,76.25,84.63
    2019-07-11 10:07:24,76.09,84.61
    2019-07-11 10:08:24,75.92,84.6
    2019-07-11 10:09:24,75.75,84.58
    2019-07-11 10:10:24,75.58,84.56
    2019-07-11 10:11:24,75.41,84.54
    2019-07-11 10:12:24,76.22,84.51
    2019-07-11 10:13:24,76.1,84.49
    2019-07-11 10:14:24,75.99,84.45
    2019-07-11 10:15:24,75.87,84.43
    2019-07-11 10:16:24,75.75,84.4
    2019-07-11 10:17:24,75.64,84.38
    2019-07-11 10:18:24,75.52,84.34
    2019-07-11 10:19:24,75.4,84.33
    2019-07-11 10:20:24,75.29,84.29
    2019-07-11 10:21:24,75.17,84.27
    2019-07-11 10:22:24,75.15,84.25
    2019-07-11 10:23:24,75.3,84.24
    2019-07-11 10:24:24,75.45,84.22
    2019-07-11 10:25:24,75.6,84.22
    2019-07-11 10:26:24,75.75,84.2
    2019-07-11 10:27:24,75.91,84.18
    2019-07-11 10:28:24,76.06,84.16
    2019-07-11 10:29:24,76.21,84.16
    2019-07-11 10:30:24,76.36,84.15
    2019-07-11 10:31:24,76.51,84.13
    2019-07-11 10:32:24,76.37,84.11
    2019-07-11 10:33:24,76.2,84.07
    2019-07-11 10:34:24,76.02,84.06
    2019-07-11 10:35:24,75.85,84.02
    2019-07-11 10:36:24,75.68,83.98
    2019-07-11 10:37:24,75.5,83.97
    2019-07-11 10:38:24,75.33,83.93
    2019-07-11 10:39:24,75.16,83.89
    2019-07-11 10:40:24,74.98,83.88
    2019-07-11 10:41:24,74.81,83.84
    2019-07-11 10:42:24,73.64,84
    2019-07-11 10:43:24,73.83,84
    2019-07-11 10:44:24,74.02,84
    2019-07-11 10:45:24,74.22,83.98
    2019-07-11 10:46:24,74.41,83.98
    2019-07-11 10:47:24,74.6,83.98
    2019-07-11 10:48:24,74.79,83.98
    2019-07-11 10:49:24,74.99,83.97
    2019-07-11 10:50:24,75.18,83.97
    2019-07-11 10:51:24,75.37,83.97
    2019-07-11 10:52:24,75.4,83.97
    2019-07-11 10:53:24,75.23,83.97
    2019-07-11 10:54:24,75.07,83.97
    2019-07-11 10:55:24,74.9,83.97
    2019-07-11 10:56:24,74.73,83.97
    2019-07-11 10:57:24,74.57,83.98
    2019-07-11 10:58:24,74.4,83.98
    2019-07-11 10:59:24,74.23,83.98
    2019-07-11 11:00:24,74.07,83.98
    2019-07-11 11:01:24,73.9,83.98
    2019-07-11 11:02:24,74,83.98
    2019-07-11 11:03:24,74.14,83.98
    2019-07-11 11:04:24,74.29,83.98
    2019-07-11 11:05:24,74.43,83.98
    2019-07-11 11:06:24,74.58,83.98
    2019-07-11 11:07:24,74.72,84
    2019-07-11 11:08:24,74.87,84
    2019-07-11 11:09:24,75.01,84
    2019-07-11 11:10:24,75.16,84
    2019-07-11 11:11:24,75.3,84
    2019-07-11 11:12:24,75.3,83.98
    2019-07-11 11:13:24,75.09,83.98
    2019-07-11 11:14:24,74.88,83.98
    2019-07-11 11:15:24,74.67,83.98
    2019-07-11 11:16:24,74.46,83.98
    2019-07-11 11:17:24,74.26,84
    2019-07-11 11:18:24,74.05,84
    2019-07-11 11:19:24,73.84,84
    2019-07-11 11:20:24,73.63,84
    2019-07-11 11:21:24,73.42,84
    2019-07-11 11:22:24,75.2,84
    2019-07-11 11:23:24,75.02,83.98
    2019-07-11 11:24:24,74.85,83.97
    2019-07-11 11:25:24,74.67,83.95
    2019-07-11 11:26:24,74.5,83.93
    2019-07-11 11:27:24,74.32,83.91
    2019-07-11 11:28:24,74.15,83.89
    2019-07-11 11:29:24,73.97,83.88
    2019-07-11 11:30:24,73.8,83.86
    2019-07-11 11:31:24,73.62,83.84
    2019-07-11 11:32:24,74.38,84
    2019-07-11 11:33:24,74.24,83.98
    2019-07-11 11:34:24,74.1,83.97
    2019-07-11 11:35:24,73.96,83.95
    2019-07-11 11:36:24,73.82,83.93
    2019-07-11 11:37:24,73.69,83.91
    2019-07-11 11:38:24,73.55,83.89
    2019-07-11 11:39:24,73.41,83.88
    2019-07-11 11:40:24,73.27,83.86
    2019-07-11 11:41:24,73.13,83.84
    2019-07-11 11:42:24,74.48,83.86
    2019-07-11 11:43:24,74.36,83.86
    2019-07-11 11:44:24,74.23,83.88
    2019-07-11 11:45:24,74.11,83.88
    2019-07-11 11:46:24,73.99,83.88
    2019-07-11 11:47:24,73.86,83.89
    2019-07-11 11:48:24,73.74,83.89
    2019-07-11 11:49:24,73.62,83.89
    2019-07-11 11:50:24,73.49,83.91
    2019-07-11 11:51:24,73.37,83.91
    2019-07-11 11:52:24,74.85,83.91
    2019-07-11 11:53:24,74.61,83.93
    2019-07-11 11:54:24,74.36,83.93
    2019-07-11 11:55:24,74.12,83.95
    2019-07-11 11:56:24,73.87,83.95
    2019-07-11 11:57:24,73.63,83.97
    2019-07-11 11:58:24,73.38,83.97
    2019-07-11 11:59:24,73.14,83.98
    2019-07-11 12:00:24,72.89,83.98
    2019-07-11 12:01:24,72.65,84
    2019-07-11 12:02:24,72.43,83.86
    2019-07-11 12:03:24,72.66,83.86
    2019-07-11 12:04:24,72.9,83.88
    2019-07-11 12:05:24,73.13,83.88
    2019-07-11 12:06:24,73.36,83.88
    2019-07-11 12:07:24,73.6,83.89
    2019-07-11 12:08:24,73.83,83.89
    2019-07-11 12:09:24,74.06,83.89
    2019-07-11 12:10:24,74.3,83.91
    2019-07-11 12:11:24,74.53,83.91
    2019-07-11 12:12:24,75.29,83.93
    2019-07-11 12:13:24,75.01,83.95
    2019-07-11 12:14:24,74.72,83.95
    2019-07-11 12:15:24,74.44,83.97
    2019-07-11 12:16:24,74.15,83.97
    2019-07-11 12:17:24,73.87,83.98
    2019-07-11 12:18:24,73.58,83.98
    2019-07-11 12:19:24,73.3,84
    2019-07-11 12:20:24,73.01,84
    2019-07-11 12:21:24,72.73,84.02
    2019-07-11 12:22:24,72.73,84.04
    2019-07-11 12:23:24,72.94,84.06
    2019-07-11 12:24:24,73.15,84.06
    2019-07-11 12:25:24,73.36,84.07
    2019-07-11 12:26:24,73.57,84.07
    2019-07-11 12:27:24,73.77,84.09
    2019-07-11 12:28:24,73.98,84.09
    2019-07-11 12:29:24,74.19,84.11
    2019-07-11 12:30:24,74.4,84.11
    2019-07-11 12:31:24,74.61,84.13
    2019-07-11 12:32:24,72.98,84.02
    2019-07-11 12:33:24,73.16,84.04
    2019-07-11 12:34:24,73.33,84.06
    2019-07-11 12:35:24,73.51,84.07
    2019-07-11 12:36:24,73.69,84.09
    2019-07-11 12:37:24,73.86,84.13
    2019-07-11 12:38:24,74.04,84.15
    2019-07-11 12:39:24,74.22,84.16
    2019-07-11 12:40:24,74.39,84.18
    2019-07-11 12:41:24,74.57,84.2
    2019-07-11 12:42:24,73.78,84.22
    2019-07-11 12:43:24,73.62,84.22
    2019-07-11 12:44:24,73.45,84.24
    2019-07-11 12:45:24,73.29,84.24
    2019-07-11 12:46:24,73.13,84.24
    2019-07-11 12:47:24,72.96,84.25
    2019-07-11 12:48:24,72.8,84.25
    2019-07-11 12:49:24,72.64,84.25
    2019-07-11 12:50:24,72.47,84.27
    2019-07-11 12:51:24,72.31,84.27
    2019-07-11 12:52:24,71.91,84.2
    2019-07-11 12:53:24,72.12,84.22
    2019-07-11 12:54:24,72.33,84.24
    2019-07-11 12:55:24,72.54,84.25
    2019-07-11 12:56:24,72.75,84.27
    2019-07-11 12:57:24,72.97,84.31
    2019-07-11 12:58:24,73.18,84.33
    2019-07-11 12:59:24,73.39,84.34
    2019-07-11 13:00:24,73.6,84.36
    2019-07-11 13:01:24,73.81,84.38
    2019-07-11 13:02:24,71.73,84.38
    2019-07-11 13:03:24,72,84.4
    2019-07-11 13:04:24,72.28,84.4
    2019-07-11 13:05:24,72.55,84.42
    2019-07-11 13:06:24,72.83,84.42
    2019-07-11 13:07:24,73.1,84.43
    2019-07-11 13:08:24,73.38,84.43
    2019-07-11 13:09:24,73.65,84.45
    2019-07-11 13:10:24,73.93,84.45
    2019-07-11 13:11:24,74.2,84.47
    2019-07-11 13:12:24,73.89,84.47
    2019-07-11 13:13:24,73.68,84.49
    2019-07-11 13:14:24,73.47,84.49
    2019-07-11 13:15:24,73.26,84.51
    2019-07-11 13:16:24,73.05,84.52
    2019-07-11 13:17:24,72.85,84.52
    2019-07-11 13:18:24,72.64,84.54
    2019-07-11 13:19:24,72.43,84.56
    2019-07-11 13:20:24,72.22,84.56
    2019-07-11 13:21:24,72.01,84.58
    2019-07-11 13:22:24,72.11,84.58
    2019-07-11 13:23:24,72.3,84.6
    2019-07-11 13:24:24,72.5,84.6
    2019-07-11 13:25:24,72.69,84.61
    2019-07-11 13:26:24,72.88,84.61
    2019-07-11 13:27:24,73.08,84.63
    2019-07-11 13:28:24,73.27,84.63
    2019-07-11 13:29:24,73.46,84.65
    2019-07-11 13:30:24,73.66,84.65
    2019-07-11 13:31:24,73.85,84.67
    2019-07-11 13:32:24,73.46,84.67
    2019-07-11 13:33:24,73.29,84.67
    2019-07-11 13:34:24,73.12,84.69
    2019-07-11 13:35:24,72.94,84.69
    2019-07-11 13:36:24,72.77,84.69
    2019-07-11 13:37:24,72.6,84.7
    2019-07-11 13:38:24,72.43,84.7
    2019-07-11 13:39:24,72.25,84.7
    2019-07-11 13:40:24,72.08,84.72
    2019-07-11 13:41:24,71.91,84.72
    2019-07-11 13:42:24,73.23,84.74
    2019-07-11 13:43:24,72.97,84.74
    2019-07-11 13:44:24,72.71,84.74
    2019-07-11 13:45:24,72.44,84.74
    2019-07-11 13:46:24,72.18,84.74
    2019-07-11 13:47:24,71.92,84.74
    2019-07-11 13:48:24,71.66,84.74
    2019-07-11 13:49:24,71.39,84.74
    2019-07-11 13:50:24,71.13,84.74
    2019-07-11 13:51:24,70.87,84.74
    2019-07-11 13:52:24,72.49,84.76
    2019-07-11 13:53:24,72.3,84.76
    2019-07-11 13:54:24,72.12,84.76
    2019-07-11 13:55:24,71.93,84.76
    2019-07-11 13:56:24,71.74,84.76
    2019-07-11 13:57:24,71.56,84.78
    2019-07-11 13:58:24,71.37,84.78
    2019-07-11 13:59:24,71.18,84.78
    2019-07-11 14:00:24,71,84.78
    2019-07-11 14:01:24,70.81,84.78
    2019-07-11 14:02:24,70.92,84.78
    2019-07-11 14:03:24,71.07,84.78
    2019-07-11 14:04:24,71.22,84.78
    2019-07-11 14:05:24,71.37,84.79
    2019-07-11 14:06:24,71.52,84.79
    2019-07-11 14:07:24,71.66,84.79
    2019-07-11 14:08:24,71.81,84.79
    2019-07-11 14:09:24,71.96,84.81
    2019-07-11 14:10:24,72.11,84.81
    2019-07-11 14:11:24,72.26,84.81
    2019-07-11 14:12:24,71.91,84.83
    2019-07-11 14:13:24,73.26,84.85
    2019-07-11 14:14:24,71.52,84.85
    2019-07-11 14:15:24,71.15,84.88
    2019-07-11 14:16:24,71.3,84.88
    2019-07-11 14:17:24,72.55,84.88
    First readings with new gadget......
  8. Blackdog1714

    Blackdog1714 Well-Known Member

    Joined:
    Jul 30, 2018
    Messages:
    328
    Likes Received:
    629
    Trophy Points:
    93
    Location (City and/or State):
    Richmond, VA
    You are doing this the right way! Dial it and get it right first then add the tortoise! Tom is dead on with his info!
    Action likes this.
  9. Action

    Action Member

    Joined:
    Jun 10, 2019
    Messages:
    56
    Likes Received:
    21
    Trophy Points:
    8
    Location (City and/or State):
    Valley Springs, Ca.
    Really looking forward to see what happens tonight with no lights or heaters....Although the CHE is set to come on at 80.
    Jack
Similar Threads: Started
Forum Title Date
Tortoise Enclosures Outside enclosure started May 14, 2017
Tortoise Enclosures Getting started Sep 7, 2016
Tortoise Enclosures conversation started by dangerkittyx3 taken from someone else's thread Apr 4, 2016
Tortoise Enclosures Finally getting started!!! May 7, 2015
Tortoise Enclosures Started on my outdoor enclosure for my Russian today!! Apr 28, 2015

Share This Page